The Dilly Family's Weather Page
McMurray, PA 15317   Weather
Using a La Crosse Technology Model 2315 Weather Station

  Local Radar

Local Radar

  Graphs, Details
Detailed Weather
Detailed Reports
Mobile Version of This Page
Brief Version of This Page
  Maps
Temperature
Heat Index
Windchill
Humidity
Radar
Dew Point
Wind
Visibility
Visible Satellite
Satellite
Fronts
Snow Depth
Jet Stream
Flight Rules
  Forecast Maps
Temperature Forecast
Maximum Temperature Forecast
Minimum Temperature Forecast
Dewpoint Forecast
Prevalent Weather
12Hr Probability of Precip.
Sky Cover
  Health Maps
UV Forecast
Air Quality
Peak Air Quality Index
  Weather Station
La Crosse Technology
 
 
Weather Underground PWS KPAMCMUR4
KPAMCMUR4 Dashboard
 

HeavyWeather Data
WeatherForYou.com METAR
Worldwide Station List METAR
Meteorological Products Processed At The NWSTG
Stickers       Local PC Clock

  Current Conditions [Select Refresh to Update]

Updated: 5:24am on 7/5/15

Currently:
59.3°

Clear
Clear

High: 64.7° 
(12:00am) 
Low: 59.3° 
(5:21am)
Wind: 0 mph from the NNE
Gust: 0 mph
Today's High Wind: 0 mph (12:00am)
Humidity: 87%
Pressure: 30.11 in  (Steady) 
Pressure Rate: 0.015 in/hr
Dew Point: 55.4°
Wind Chill: 59.3°
Heat Index (feels like): 64.5°
Comfort Level: Cool
Temperature Rate:  -0.90°/hr
 
  5 Day Forecast
 
Sun Mon Tue Wed Thu
Clear Clear Clear Clear Clear
Mostly Cloudy Chance T-storms Chance T-storms Chance T-storms Chance T-storms
82° 83° 84° 82° 80°
60° 64° 66° 66° 65°

  Records and Normals
 
Temperature Forecast Normal Record
High 82° 84° 96°
(1949)
Low 60° 63° 45°
(1979)
 
  Almanac
Sunrise:  
5:57am
Moonrise: 
11:23pm

Moon Phase:
88%

Sunset: 
8:54pm
Moonset:  
10:00am
 
  Weather Underground     KPAMCMUR4

 

 

In Temp:     72.8

  Weather Advisories
No Warning
Full Advisory Text...
  Weather Map

 
  Web Cams   (Northerly View)
Northerly view toward Pittsburgh.
 
  Rainfall Totals
Hourly Rain 0.00 in
Daily Rain 0.00 in
Monthly Rain 0.00 in
Yearly Rain 21.76 in
Normal Rain, month to date       0.96 in
Normal Rain, year to date 24.36 in
 
 
Weather.com
WeatherUnderground NorthEast Fronts
WeatherUnderground NorthEast Radar
WeatherBug NorthEast Radar
WeatherBug, Peters HS
WPXI Weather
KDKA Weather
WTEA Weather
Intellacast Canonsburg
AccuWeather
Yahoo, McMurray
Twitter, Pittsburgh
Fox53 Radar - Uses Pop-up Ads!
Time and Date, Pittsburgh
NOAA Weather Pitt
FilghtStats PIT
NWS Thompsonville
USGS Tides and Temperature at Manasquan
NWS US Radar - Loop
Windyty, Wind Forecast
  Local Weather Exchange Network
Station ID

City 
(Click for Map Location)

Neighborhood 
(Click for History)
Last Update (Date & Time)

Temperature
 (°)

Dew
Point (°)
Humidity 
(%)
Wind 
(mph)
from the Wind Gust 
(mph) 
Pressure (in) Hourly
Rain (in)
KPACANON4 Canonsburg Morgan's Point 07/05 05:05:11 55.6 52.0 87 0 SSW 0 29.82 0.00
KPACANON8 Canonsburg Hooks Lane 07/05 05:10:51 58.1 54.0 87 0 North 0 30.18 0.00
KPACANON7 Canonsburg Scenery Circle 07/05 05:10:44 56.1 54.0 92 0 North 0 30.14 0.00
KPAMCMUR5 McMurray Bremen Lane 07/05 05:10:23 60.4 55.0 83 0 North 0 30.11 0.00
KPAMCMUR4 McMurray Thompsonville-McMurray 07/05 05:20:04 59.5 56.0 87 0 NNE 0 30.10 0.00
KPABRIDG3 Bridgeville Willowbrook 07/05 05:20:03 57.4 57.0 99 0 NW 0 30.12 0.00
KPACANON6 Canonsburg Sunset Acres, McMurray PA KPACANON6 07/05 05:17:27 63.1 47.0 55 0 SSW 0 30.04 0.00
KPAMCMUR3 McMurray St. Benedict the Abbot 07/05 05:19:55 57.2 57.0 100 0 WNW 0 30.03 0.00
KPABRIDG2 Bridgeville Hunting Ridge 07/05 04:15:03 60.8 54.0 79 0 NNE 0 28.91 0.00
KPAEIGHT3 Eighty Four Nottingham Twp. 07/05 05:20:06 61.3 54.0 76 0 NNE 0 30.10 0.00
KPAVENET5 Venetia Willamar 07/05 05:06:32 58.1 54.0 87 0 SW 0 29.99 0.00
KPABRIDG1 Bridgeville Olde Orchard South Fayette Bridgeville 07/05 05:19:59 55.8 52.0 88 0 WNW 0 30.07 0.00
KPAVENET3 Venetia Bower Hill Rd 07/05 05:19:42 55.0 54.0 98 0 WSW 0 30.06 0.00
KPABETHE4 Bethel Park Bethel Park, PA - Terrasurv 07/05 05:16:40 58.4 57.0 95 0 West 0 30.05 0.00
MD6598 Cuddy APRSWXNET 07/05 04:51:00 55.0 54.0 95 0 West 0 30.05 0.00
KPABETHE1 Pittsburgh Bethel Park 07/05 05:19:19 56.7 55.0 93 0 North 0 30.08 0.00
KPABETHE3 Bethel Park Bethel Park 07/05 05:15:17 57.5 56.0 95 0 North 0 30.05 0.00
KPAWASHI5 Washington Cameron Estates/South Strabane 07/05 05:18:42 53.6 53.0 98 0 SSE 0 30.09 0.00
KPAVENET4 Venetia Sugar Run Road 07/05 05:20:05 55.0 51.0 85 0 South 0 29.89 0.00
KPAFINLE2 Finleyville Banahasky Lane 07/05 05:11:09 62.8 53.0 70 0 North 0 29.95 0.00
MAS795 Pittsburgh APRSWXNET 07/05 04:57:00 59.0 58.0 98 0 North 0 30.15 0.00
KPAPITTS89 Pittsburgh Washington Road 07/05 05:10:41 61.3 59.0 93 0 North 0 30.19 0.00
KPAWASHI3 Washington Canton Twp. 07/05 05:19:27 56.4 54.0 91 0 NNE 0 30.03 0.00
KPAPITTS143 Pittsburgh Park Entrance Drive 07/05 05:11:02 66.7 59.0 75 0 North 0 28.88 0.00
KPASCOTT2 Scott Township Scott Township Neighborhood Weather 07/05 05:20:01 57.4 56.0 96 0 SSE 0 30.19 0.00
KPAPITTS87 Pittsburgh Mt. Lebanon, PA 07/05 05:20:00 57.0 54.0 91 0 SSW 0 30.15 0.00
KPAPITTS98 Pittsburgh Jamestown Road 07/05 05:10:50 60.1 54.0 80 0 North 0 30.14 0.00
KPAPITTS139 Pittsburgh Dormont 2 07/05 05:19:12 60.8 59.0 94 0 NE 0 29.95 0.00
KPAPITTS140 Pittsburgh Grandin Avenue 07/05 05:10:17 65.3 58.0 76 0 North 0 29.97 0.00
KPAPITTS97 Pittsburgh Greentree 07/05 05:20:07 60.6 59.0 93 0 SSE 0 30.01 0.00
KPAPITTS103 Pittsburgh Overbrook 07/05 05:10:54 60.8 56.0 84 0 North 0 29.98 0.00
KPAPITTS134 Pittsburgh Brookline Twin Oak 07/05 05:19:41 59.0 58.0 96 0 NW 0 30.14 0.00
KPAPITTS132 Pittsburgh Robinson Drive 07/05 05:11:27 61.5 56.0 81 0 North 0 30.15 0.00
KPAPITTS88 Pittsburgh Village Green Drive 07/05 05:10:43 60.4 53.0 75 0 North 0 30.18 0.00
KPAPITTS29 Pittsburgh Carrick/Pittsburgh 07/05 05:18:12 56.3 56.0 97 0 NNE 0 30.04 0.00
KPACRAFT2 Crafton Bradford Court 07/05 05:20:02 59.2 59.0 99 0 North 0 30.15 0.00
KPAPITTS58 Pittsburgh Robinson Township 07/05 05:19:56 61.3 54.0 76 0 North 0 30.09 0.00
KPAIMPER1 Imperial Imperial Neighborhood Weather 07/05 05:15:40 55.7 55.0 96 0 NNW 0 30.05 0.00
KAGC Pittsburgh Allegheny Co. Official Station 07/05 04:53:00 60.0 53.0 78 0 North --- 30.09 ---
KPIT Pittsburgh Official Station 07/05 04:51:00 60.0 55.0 83 0 North --- 30.10 ---
  Full Advisory Text
No Warnings

7/5/15 4+ 5:24am   - http://weatherstation.wunderground.com/weatherstation/updateweatherstation.php?action=updateraw&ID=KPASMITH2&PASSWORD=&dateutc=2010-07-05+22%3A09%3A33&winddir=NNE&tempf=59.3&windspeedmph=0&humidity=87&dewptf=55.4&baromin=30.11&rainin=0.00&dailyrainin=0.00

Ambient Weather and Weather Underground
 Never base important decisions on this or any weather information obtained from the Internet
Updated Automatically by Ambient Weather's Virtual Weather Station  V14.00

Template updated: 7:39 AM 2/21/2015